Hourly Data Report for January 28, 2006

TORONTO CITY
ONTARIO

43°40'00.000" N
79°24'00.000" W
112.50 m
6158355
71508
XTO

Download Data

Hourly Data (January 2006)
Hourly Data Report for January 28, 2006
TIME
LST
Temp Definition
°C
Dew Point Definition
°C
Rel Hum Definition
%
Precip. Amount Definition
mm

Wind Dir Definition
10's deg

Wind Spd Definition
km/h
Visibility Definition
km
Stn Press Definition
kPa
Hmdx Definition


Wind Chill Definition


Weather Definition


00:00 3.8 -1.8 67   LegendMM LegendMM   100.82     LegendNANA
01:00 4.7 -2.4 60   LegendMM LegendMM   100.79     LegendNANA
02:00 4.7 -2.2 61   LegendMM LegendMM   100.78     LegendNANA
03:00 4.8 -1.7 63   LegendMM LegendMM   100.77     LegendNANA
04:00 5.3 -1.6 61   LegendMM LegendMM   100.73     LegendNANA
05:00 4.8 -1.5 64   LegendMM LegendMM   100.75     LegendNANA
06:00 4.3 -1.2 67   LegendMM LegendMM   100.77     LegendNANA
07:00 3.6 -1.2 71   LegendMM LegendMM   100.79     LegendNANA
08:00 3.2 -1.0 74   LegendMM LegendMM   100.82     LegendNANA
09:00 3.8 -0.6 73   LegendMM LegendMM   100.82     LegendNANA
10:00 5.6 -0.2 66   LegendMM LegendMM   100.84     LegendNANA
11:00 7.7 0.3 59   LegendMM LegendMM   100.81     LegendNANA
12:00 8.4 0.6 58   LegendMM LegendMM   100.74     LegendNANA
13:00 9.7 0.8 54   LegendMM LegendMM   100.66     LegendNANA
14:00 9.4 0.8 55   LegendMM LegendMM   100.62     LegendNANA
15:00 8.8 1.3 59   LegendMM LegendMM   100.56     LegendNANA
16:00 8.1 2.0 65   LegendMM LegendMM   100.59     LegendNANA
17:00 7.0 1.8 69   LegendMM LegendMM   100.54     LegendNANA
18:00 6.6 1.7 71   LegendMM LegendMM   100.55     LegendNANA
19:00 6.1 1.9 74   LegendMM LegendMM   100.55     LegendNANA
20:00 6.4 2.2 74   LegendMM LegendMM   100.56     LegendNANA
21:00 6.0 2.3 77   LegendMM LegendMM   100.46     LegendNANA
22:00 5.9 2.2 77   LegendMM LegendMM   100.45     LegendNANA
23:00 5.0 3.1 87   LegendMM LegendMM   100.42     LegendNANA

Notes on Data Quality.

Legend

  • E = Estimated
  • M = Missing
  • NA = Not Available*
  • [empty] = Indicates an unobserved value
Date modified: